Location: Buckland
(65.9785°N, 161.1281°W)
Time: 04:47:57
(UTC+00:00)

Transit 4A - Pass Details

Date: 29 November 2020
Orbit: 864 x 980 km, 66.8° (Epoch: 26 January)

Event Time Altitude Azimuth Distance (km) Brightness Sun altitude
Rises 02:55:56 0° 305° (NW) 3,695 11.4 -10.4°
Reaches altitude 10° 02:58:41 10° 298° (WNW) 2,742 10.8 -10.6°
Maximum altitude 03:04:28 37° 234° (SW) 1,470 9.7 -11.1°
Drops below altitude 10° 03:10:10 10° 169° (S) 2,690 10.5 -11.6°
Sets 03:12:51 0° 162° (SSE) 3,617 11.1 -11.9°
